Weather Roundup
Issued by NWS Springfield, MO

Home | Current Version | Previous Version | Text Only | Print | Product List | Glossary On
Versions: 1 2 3 4 5 6 7 8 9 10 11 12 13 14 15 16 17 18 19 20 21 22 23 24 25 26 27 28 29 30 31 32 33 34 35 36 37 38 39 40 41 42 43 44 45 46 47 48 49 50
000
NZUS99 KSGF 300807
HRRSGF

HOURLY WEATHER
NATIONAL WEATHER SERVICE SPRINGFIELD MO
300 AM CDT TUE SEP 30 2014

......SGF CWA......

CITY           SKY/WX    TMP DP  RH WIND       PRES   REMARKS
SPRINGFIELD    CLEAR     61  56  83 CALM      29.98S
JOPLIN         CLEAR     63  58  83 S3        29.97S
WEST PLAINS    CLEAR     58  55  90 CALM      30.00S
ROLLA          CLEAR     59  52  77 S6        29.97S
OSAGE BEACH    CLEAR     57  54  88 CALM      29.97S
BRANSON        CLEAR     59  57  94 CALM      29.99S

......SURROUNDING SGF CWA......

CITY           SKY/WX    TMP DP  RH WIND       PRES   REMARKS
CHANUTE        CLEAR     62  59  90 SE7       29.96F
PARSONS        CLEAR     59  58  96 E3        29.96F
COFFEYVILLE    PTCLDY    60  58  92 E3        29.95S
EMPORIA        PTCLDY    62  59  90 SE7       29.94F
GROVE OK       CLEAR     61  61 100 CALM      29.98S
ROGERS AR      CLEAR     63  60  90 SE3       30.00R
SILOAM SPRINGS CLEAR     61  55  82 E3        29.99S
HARRISON AR    CLEAR     60  58  92 CALM      29.99R
NEAR YELLVILLE CLEAR     59  54  82 CALM      29.97S

......KANSAS AND MISSOURI......

CITY           SKY/WX    TMP DP  RH WIND       PRES   REMARKS
KANSAS CTY INT PTCLDY    62  57  83 SE7       29.96F
DOWNTOWN KC    PTCLDY    66  60  81 NE3       29.95F
COLUMBIA       CLEAR     61  56  83 S6        29.98S
SEDALIA        CLEAR     60  57  89 SE3       29.98S
ST JOSEPH      PTCLDY    56  54  93 CALM      29.96S
ST LOUIS       CLEAR     65  59  81 CALM      29.96F
SPIRIT OF STL  CLEAR     57  55  93 CALM      29.95F FOG
KIRKSVILLE     CLEAR     56  54  93 CALM      29.98S FOG
WICHITA        MOCLDY    66  57  72 S9        29.92S
TOPEKA         PTCLDY    64  60  87 CALM      29.94F
OLATHE         PTCLDY    64  60  87 S3        29.96F

......TENNESSEE......

CITY           SKY/WX    TMP DP  RH WIND       PRES   REMARKS
MEMPHIS        CLEAR     65  58  78 CALM      29.92F
NASHVILLE      CLEAR     62  59  90 S3        29.94F

......ARKANSAS.......

CITY           SKY/WX    TMP DP  RH WIND       PRES   REMARKS
FAYETTEVILLE   CLEAR     57  57 100 S3        29.99R
FT SMITH       CLEAR     65  62  90 NE3       29.95R
LITTLE ROCK    CLEAR     65  60  84 CALM      29.93S

......OKLAHOMA.......

CITY           SKY/WX    TMP DP  RH WIND       PRES   REMARKS
TULSA          CLEAR     63  59  87 E6        29.94S
PONCA CITY     CLEAR     68  58  70 SE8       29.92S
MCALESTER      PTCLDY    65  61  87 MISG      29.94F
OKLAHOMA CITY  PTCLDY    60  57  89 SE6       29.93R

......IOWA............

CITY           SKY/WX    TMP DP  RH WIND       PRES   REMARKS
DES MOINES     PTCLDY    60  56  86 E7        30.00S

......ILLINOIS........

CITY           SKY/WX    TMP DP  RH WIND       PRES   REMARKS
QUINCY         CLEAR     62  57  83 S3        29.96S
CHICAGO        CLOUDY    52  46  80 N15       30.04R



USA.gov is the U.S. government's official web portal to all federal, state and local government web resources and services.